Погода в Цимлянске

Погода в Цимлянске : погода сейчас, прогноз погоды и архив. Всё, что Вы хотите узнать о погоде в Цимлянске!

Хотите узнать прогноз погоды в Цимлянске? Тогда Вам сюда: Погода в Цимлянске

Поиск расширенной информации на нашем сайте:

Другие новости

Новости СМИ2

Главная страница сайта

Новости сайта

03.07.2017

Напоминаем, что на нашем специализированном сайте Метеоцентр.Азия вы можете получить высокодетализированные автоматические прогнозы погоды по пунктам России, СНГ и мира в авиационном формате (включающие направление и скорость ветра, видимость, явления погоды, количество и форму облачности, нижнюю и верхнюю границу облачности).

Рекомендуем: Подробности сканер штрих кода у нас.

Погода в Цимлянске - сегодня

Время (UTC), дата Ветер
(°,м/с) 
Видим.   Явления Облачность Т
(°С)
Тd
(°С)
f(%) Тe
(°С)
Pmin
(гПа)
dP
(гПа)
Po
(мм)
O2
(г/м3)
Тmin Tmax R s Состояние
почвы
09 16.06.18 050 (СВ) 20000 м    4/0 верхняя 
[Ci fib]
+27.4 +14.3 45 +35  1011.2  753  273           
12 16.06.18 060 (СВ) 20000 м    4/0 верхняя 
[Ci fib]
+28.3 +14.5 43 +36  1010.7  -0.5  752  272           
15 16.06.18 040 (СВ) 20000 м    4/0 верхняя 
[Ci fib]
+28 +14 42 +35  1010.7  752  272    +28.8       
18 16.06.18 040 (СВ) 3{10}  20000 м    4/0 верхняя 
[Ci fib]
+24.7 +10.3 40 +26  1012.3  1.5  754  277           
21 16.06.18 050 (СВ) 4{11}  20000 м    ясно 
+22.2 +9.2 43 +22  1012.8  0.4  754  279           
00 17.06.18 070 (В) 6-12{13}  20000 м    ясно 
+20.3 +7 42 +20  1013.8  0.9  755  282           
03 17.06.18 080 (В) 20000 м    ясно 
+18.7 +4.8 40 +19  1014.5  0.7  755  284  +18.5        сухая 
06 17.06.18 070 (В) 3{10}  20000 м    3/0 средняя, верхняя 
[Ac trans|Ci fib]
+21.9 +5.6 35 +22  1014.2  -0.3  755  281           
09 17.06.18 050 (СВ) 4{10}  20000 м    4/0 верхняя 
[Ci fib]
+23.7 +4.8 29 +24  1013.9  -0.2  755  279           
12 17.06.18 050 (СВ) 3{10}  20000 м    8/0 верхняя 
[Ci fib]
+26.2 +7.9 31 +26  1012.7  -1.2  754  276           
15 17.06.18 050 (СВ) 20000 м    9/0 верхняя 
[Ci]
+25.5 +6.9 30 +26  1011.6  -1.1  753  276    +26.5       
18 17.06.18 030 (СВ) 20000 м    10/0 верхняя 
[Ci]
+23 +5 31 +23  1012.5  0.8  754  279           
21 17.06.18 040 (СВ) 20000 м    ясно 
+21.3 +9.2 46 +21  1012.1  -0.4  753  280           
00 18.06.18 050 (СВ) 20000 м    ясно 
+19.9 +9.5 51 +21  1012.1  753  281           
03 18.06.18 040 (СВ) 20000 м    3/0 верхняя 
[Ci fib]
+19.3 +8.2 49 +20  1012.3  0.2  753  282  +18.9        сухая 
06 18.06.18 050 (СВ) 20000 м    3/0 верхняя 
[Ci fib]
+23.2 +8.5 39 +23  1012.2  753  278           
09 18.06.18 060 (СВ) 20000 м    3/0 верхняя 
[Ci fib]
+26.9 +4.8 24 +27  1011.6  -0.6  753  275           
12 18.06.18 050 (СВ) 20000 м    3/0 верхняя 
[Ci fib]
+28 +4.1 22 +28  1011  -0.6  753  274           
15 18.06.18 050 (СВ) 20000 м    1/0 верхняя 
[Ci fib]
+27.7 +4.3 22 +28  1010.5  -0.5  752  275    +28.5       
18 18.06.18 020 (С) 20000 м    ясно 
+24.2 +3.5 26 +24  1011.1  0.5  753  278           
21 18.06.18 050 (СВ) 20000 м    ясно 
+22 +12.2 54 +26  1011.2  753  278           
00 19.06.18 030 (СВ) 20000 м    ясно 
+19 +8.7 51 +20  1011.9  0.7  753  282           
03 19.06.18 тихо ()   20000 м    ясно 
+18.9 +9.1 53 +19  1013.1  1.1  754  283  +15.1        сухая 
06 19.06.18 070 (В) 20000 м    ясно 
+25.3 +6.8 31 +25  1013.5  0.6  754  277           
09 19.06.18 100 (В) 20000 м    ясно 
+28.7 +3.2 20 +29  1013.2  -0.2  754  275           
Время (UTC), дата Ветер
(°,м/с) 
Видим.   Явления Облачность Т
(°С)
Тd
(°С)
f(%) Тe
(°С)
Pmin
(гПа)
dP
(гПа)
Po
(мм)
O2
(г/м3)
Тmin Tmax R s Состояние
почвы

Для получения пояснительной информации подведите курсор к названию столбца.

ПОГОДА в Цимлянске - архив

Всё, что Вы хотите узнать о погоде в Цимлянске - удобно и подробно!

Выберите нужную дату (начиная с 1 января 2015* года) и нажмите кнопку "Найти".
Будут отображены архивные сводки погоды по пункту Цимлянск, начиная с указанной даты.


Отображать данные в формате CSV (для использования в таблицах Excel)


Внимание! Наш архив погоды предназначен исключительно для личного некоммерческого использования в познавательных целях. Если Вам необходимы официальные справки о состоянии погоды (для производственных, юридических, коммерческих и т.п. целей), обращайтесь в органы Росгидромета.

*Примечание: данная дата относится к архиву по метеостанциям СССР (Россия, СНГ, Балтия).
Архив по метеостанциям Зарубежной Европы и Азии (кроме Китая) хранится 10 дней, по другим регионам земного шара (Китай, Африка, Америка, Австралия, Океания) - 1 день.

Цимлянск - район местоположения метеостанции


Название, широта, долгота, высота метеостанции:
Цимлянск 47.6°ш. 42.1°д. 65 м над ур. моря [Российская Федерация]

Дополнительная информация

В oтличие oт бoльшинства пoгoдных сайтoв мы публикуем пoдрoбную метеoинфoрмацию в детальнoм прoфессиoнальнoм фoрмате.

Характеристики температуры и влажнoсти вoздуха измеряются на высoте 2 м в тени вдали oт зданий и деревьев.
Скoрoсть ветра измеряется на высoте 10 м (на урoвне рoста челoвека скoрoсть ветра ниже в 1.5-2 раза). Если метеoстанция нахoдится в гoрoде или в лесу, тo скoрoсть ветра занижена на 2-4 м/с пo сравнению с oткрытым местoм. Скoрoсть ветра над акватoриями крупных рек и oзёр, а также на вершинах хoлмoв на 2-5 м/с выше, чем в oбычных услoвиях.
Атмoсфернoе давление в разных тoчках местнoсти мoжет значительнo oтличаться oт давления на метеoстанции, в зависимoсти oт услoвий рельефа (при пoдъёме на 10 м давление пoнижается примернo на 1 мм рт.ст.).